Regional Weather Roundup
Issued by NWS

Home | Current Version | Previous Version | Graphics & Text | Print | Product List | Glossary On
Versions: 1 2 3 4 5 6 7 8 9 10 11 12 13 14 15 16 17 18 19 20 21 22 23 24 25 26 27 28 29 30 31 32 33 34 35 36 37 38 39 40 41 42 43 44 45 46 47 48 49 50
495
ASUS43 KDMX 221101
RWRIA

WEATHER ROUNDUP FOR IOWA
NATIONAL WEATHER SERVICE DES MOINES IA
600 AM CDT SUN APR 22 2018

NOTE: "FAIR" INDICATES FEW OR NO CLOUDS BELOW 12,000 FEET WITH NO
SIGNIFICANT WEATHER AND/OR OBSTRUCTIONS TO VISIBILITY.

* - THESE STATIONS ARE NOT NWS STATIONS...THUS NOT UNDER NWS
QUALITY CONTROL.  THEY ALSO DO NOT REPORT WEATHER SUCH
AS PRECIPITATION OR FOG.

IAZ001>003-012>014-020>022-031>034-043>046-221200-
   NORTHWEST IOWA

CITY           SKY/WX    TMP DP  RH WIND       PRES   REMARKS
CARROLL *      MOCLDY    36  32  87 CALM      30.25S
CHEROKEE *     CLOUDY    37  34  90 E3        30.27S
DENISON *      CLOUDY    39  34  81 NE5       30.25S
LE MARS *      PTCLDY    36  32  87 N5        30.27R WCI  32
ORANGE CITY *  CLOUDY    39  36  87 E3        30.27R
SHELDON *      CLEAR     34  32  93 E6        30.27R WCI  29
SIOUX CITY     CLOUDY    37  30  75 CALM      30.26S
SPENCER        CLOUDY    34  31  88 NE5       30.29R WCI  30
STORM LAKE *   CLOUDY    37  34  87 E6        30.26S WCI  33
$$

IAZ055>058-069>071-079>083-090>094-221200-
   SOUTHWEST IOWA

CITY           SKY/WX    TMP DP  RH WIND       PRES   REMARKS
ATLANTIC *     CLOUDY    48  32  53 E9        30.21S
AUDUBON *      CLOUDY    39  34  81 CALM      30.24S
CLARINDA *     CLOUDY    48  32  53 E10       30.20S
COUNCIL BLFS * PTCLDY    45  34  65 NE9       30.20S
CRESTON *      CLOUDY    46  32  57 E14       30.21S
HARLAN  *      CLOUDY    45  32  61 NE6       30.25S
LAMONI         CLOUDY    47  31  53 NE10      30.18F
RED OAK *      CLOUDY    48  32  53 NE10      30.19F
SHENANDOAH *   CLOUDY    48  32  53 NE8       30.18F
$$

IAZ047>049-059>061-072>074-084-221200-
   CENTRAL IOWA

CITY           SKY/WX    TMP DP  RH WIND       PRES   REMARKS
AMES           CLOUDY    42  31  64 NE3       30.26S
ANKENY *       MOCLDY    43  32  65 NE6       30.26S
BOONE *        CLOUDY    41  34  75 NE10      30.25S
CHARITON *     CLOUDY    46  32  57 E10       30.22R
DES MOINES     CLOUDY    47  31  53 E8        30.24S
GRINNELL*      CLOUDY    42  33  69 NE9       30.27S
KNOXVILLE *    CLOUDY    46  28  49 E13       30.23R
MARSHALLTOWN   PTCLDY    42  34  73 E10       30.27S
NEWTON *       CLOUDY    45  30  57 E9        30.26R
PELLA *        CLOUDY    47  29  49 E9G16     30.26R
$$

IAZ004>006-015-016-023>025-035-036-221200-
   NORTH CENTRAL IOWA

CITY           SKY/WX    TMP DP  RH WIND       PRES   REMARKS
ALGONA *       CLOUDY    41  34  75 E6        30.29S
CLARION *      MOCLDY    41  36  81 E12       30.28F
ESTHERVILLE    CLOUDY    32  30  92 NE3       30.29S
FORT DODGE *   PTCLDY    42  36  79 NE9       30.27F
MASON CITY     CLOUDY    35  32  88 N6        30.32S WCI  30
FOREST CITY *  FAIR      37  34  87 E3        30.31S
WEBSTER CITY * PTCLDY    39  36  87 E7        30.26R WCI  34
IOWA FALLS *   FAIR      44  36  74 NE6       30.29S
$$

IAZ007>011-017>019-026>030-037>042-050>054-066-221200-
   NORTHEAST IOWA

CITY           SKY/WX    TMP DP  RH WIND       PRES   REMARKS
CEDAR RAPIDS   FAIR      45  27  49 E12       30.28S
CHARLES CITY * CLOUDY    41  36  81 NE8       30.31F
CLINTON *      FAIR      43  25  49 E10       30.31S
DECORAH *      CLOUDY    41  34  75 E3        30.32S
DUBUQUE        FAIR      42  30  62 NE8       30.31F
MONTICELLO *   FAIR      43  28  56 E7        30.30S
OELWEIN *      CLOUDY    41  37  87 E7        30.31S
WATERLOO       FAIR      42  35  76 E5        30.30S
$$

IAZ064-065-067-068-078-221200-
   EAST CENTRAL IOWA

CITY           SKY/WX    TMP DP  RH WIND       PRES   REMARKS
DAVENPORT      FAIR      43  22  43 E12       30.31R
IOWA CITY      FAIR      47  25  42 NE12      30.29S
MUSCATINE *    FAIR      48  25  40 E13       30.28S
QUAD CITIES    FAIR      45  24  43 E8        30.29R
$$

IAZ062-063-075>077-085>089-095>099-221200-
   SOUTHEAST IOWA

CITY           SKY/WX    TMP DP  RH WIND       PRES   REMARKS
BURLINGTON     CLOUDY    47  28  47 E12       30.24S
FAIRFIELD *    CLOUDY    45  28  53 NE12      30.24R
FORT MADISON * CLOUDY    46  30  53 E12       30.24S
KEOKUK *       CLOUDY    46  32  57 E12G18    30.22R
CENTERVILLE *    N/A     46  32  57 E13       30.22R
OTTUMWA        CLOUDY    45  30  55 NE10      30.24R
WASHINGTON *   MOCLDY    43  30  61 NE10      30.27S
$$

ABBREVIATIONS USED IN REMARKS
   TC - TEMPERATURES IN CELSIUS
  WCI - WIND CHILL INDEX
   HX - HEAT INDEX
  VSB - VISIBILITY
$$





USA.gov is the U.S. government's official web portal to all federal, state and local government web resources and services.